Weather History for Harrisburg, IL

Change the Weather History Date:

Tuesday, March 19, 2013

  Actual Average (KMWA) Record (KMWA)
Temperature  
Mean Temperature 38 °F -  
Max Temperature 46 °F 55 °F 83 °F (1982)
Min Temperature 30 °F 34 °F 22 °F (1993)
Degree Days  
Heating Degree Days 27    
Moisture  
Dew Point 24 °F    
Average Humidity 59    
Maximum Humidity 93    
Minimum Humidity 32    
Precipitation  
Precipitation 0.00 in - - ()
Sea Level Pressure  
Sea Level Pressure 30.15 in    
Wind  
Wind Speed 7 mph (WNW)    
Max Wind Speed 17 mph    
Max Gust Speed 23 mph    
Visibility 10 miles    
Events      
Averages and records for this station are not official NWS values.
T = Trace of Precipitation, MM = Missing Value Source: NWS Daily Summary

Daily Weather History Graph

Daily Weather History Graph

Search for Another Location

Airport:

Trip Planner

Search our weather history database for the weather conditions in past years. The results will help you decide how hot, cold, wet, or windy it might be!

Date:

Astronomy

Mar. 19, 2013 Rise Set
Actual Time 6:58 AM CDT 7:05 PM CDT
Civil Twilight 6:32 AM CDT 7:31 PM CDT
Nautical Twilight 6:02 AM CDT 8:02 PM CDT
Astronomical Twilight 5:31 AM CDT 8:33 PM CDT
Moon 11:54 AM CDT 1:46 AM CDT
Length of Visible Light 12h 58m
Length of Day
12h 06m
Waxing Crescent, 50% of the Moon is Illuminated
Mar 19
Waxing Crescent
Mar 19
First Quarter
Mar 27
Full
Apr 2
Last Quarter
Apr 10
New

Hourly Weather History & Observations

Time (CDT) Temp. Windchill Dew Point Humidity Pressure Visibility Wind Dir Wind Speed Gust Speed Precip Events Conditions
12:15 AM 35.6 °F 32.8 °F 33.8 °F 93% 30.00 in 10.0 mi NW 3.5 mph - N/A   Clear
12:35 AM 35.6 °F 30.7 °F 32.0 °F 87% 30.00 in 10.0 mi West 5.8 mph - N/A   Clear
12:55 AM 37.4 °F 30.8 °F 32.0 °F 81% 30.01 in 10.0 mi West 9.2 mph - N/A   Clear
1:15 AM 37.4 °F 31.4 °F 30.2 °F 75% 30.02 in 10.0 mi WNW 8.1 mph - N/A   Clear
1:35 AM 37.4 °F 32.1 °F 28.4 °F 70% 30.03 in 10.0 mi WNW 6.9 mph - N/A   Clear
1:55 AM 37.4 °F 31.4 °F 28.4 °F 70% 30.04 in 10.0 mi NW 8.1 mph - N/A   Clear
2:15 AM 35.6 °F 29.2 °F 28.4 °F 75% 30.05 in 10.0 mi NNW 8.1 mph - N/A   Clear
2:35 AM 35.6 °F 29.2 °F 26.6 °F 70% 30.06 in 10.0 mi NW 8.1 mph - N/A   Clear
2:55 AM 33.8 °F 29.6 °F 28.4 °F 81% 30.06 in 10.0 mi NW 4.6 mph - N/A   Clear
3:15 AM 33.8 °F 27.7 °F 26.6 °F 75% 30.06 in 10.0 mi NW 6.9 mph - N/A   Clear
3:35 AM 33.8 °F 29.6 °F 26.6 °F 75% 30.06 in 10.0 mi NNW 4.6 mph - N/A   Clear
3:55 AM 32.0 °F 26.4 °F 26.6 °F 80% 30.07 in 10.0 mi NNW 5.8 mph - N/A   Clear
4:15 AM 32.0 °F 24.8 °F 26.6 °F 80% 30.08 in 10.0 mi NW 8.1 mph - N/A   Clear
4:35 AM 32.0 °F 26.4 °F 23.0 °F 69% 30.07 in 10.0 mi NW 5.8 mph - N/A   Clear
4:55 AM 32.0 °F 26.4 °F 23.0 °F 69% 30.07 in 10.0 mi NNW 5.8 mph - N/A   Clear
5:15 AM 32.0 °F 28.7 °F 23.0 °F 69% 30.08 in 10.0 mi WNW 3.5 mph - N/A   Clear
5:35 AM 32.0 °F - 23.0 °F 69% 30.08 in 10.0 mi Calm Calm - N/A   Clear
5:55 AM 32.0 °F 27.5 °F 24.8 °F 75% 30.08 in 10.0 mi SW 4.6 mph - N/A   Clear
6:15 AM 30.2 °F 26.7 °F 26.6 °F 86% 30.09 in 10.0 mi SW 3.5 mph - N/A   Clear
6:35 AM 30.2 °F 24.3 °F 24.8 °F 80% 30.11 in 10.0 mi SW 5.8 mph - N/A   Clear
6:55 AM 30.2 °F 25.4 °F 24.8 °F 80% 30.12 in 10.0 mi WSW 4.6 mph - N/A   Clear
7:15 AM 32.0 °F 26.4 °F 23.0 °F 69% 30.13 in 10.0 mi WSW 5.8 mph - N/A   Clear
7:35 AM 32.0 °F 26.4 °F 23.0 °F 69% 30.14 in 10.0 mi WSW 5.8 mph - N/A   Clear
7:55 AM 32.0 °F 26.4 °F 23.0 °F 69% 30.14 in 10.0 mi WSW 5.8 mph - N/A   Clear
8:15 AM 33.8 °F 26.4 °F 23.0 °F 65% 30.14 in 10.0 mi West 9.2 mph - N/A   Clear
8:35 AM 33.8 °F 26.4 °F 23.0 °F 65% 30.15 in 10.0 mi West 9.2 mph - N/A   Clear
8:55 AM 35.6 °F 27.5 °F 23.0 °F 60% 30.13 in 10.0 mi WNW 11.5 mph - N/A   Clear
9:15 AM 35.6 °F 26.6 °F 23.0 °F 60% 30.15 in 10.0 mi West 13.8 mph - N/A   Clear
9:35 AM 35.6 °F 25.9 °F 21.2 °F 56% 30.16 in 10.0 mi WNW 16.1 mph 21.9 mph N/A   Clear
9:55 AM 37.4 °F 28.9 °F 21.2 °F 52% 30.18 in 10.0 mi WNW 13.8 mph 23.0 mph N/A   Clear
10:15 AM 37.4 °F 28.5 °F 19.4 °F 48% 30.18 in 10.0 mi NW 15.0 mph 21.9 mph N/A   Clear
10:35 AM 41.0 °F 33.5 °F 21.2 °F 45% 30.20 in 10.0 mi WNW 13.8 mph 20.7 mph N/A   Clear
10:55 AM 41.0 °F 33.5 °F 21.2 °F 45% 30.20 in 10.0 mi WNW 13.8 mph - N/A   Clear
11:15 AM 41.0 °F 32.5 °F 21.2 °F 45% 30.20 in 10.0 mi WNW 17.3 mph - N/A   Clear
11:35 AM 42.8 °F 35.8 °F 21.2 °F 42% 30.21 in 10.0 mi WNW 13.8 mph - N/A   Clear
11:55 AM 42.8 °F 35.4 °F 23.0 °F 46% 30.21 in 10.0 mi West 15.0 mph - N/A   Clear
12:15 PM 42.8 °F 37.0 °F 21.2 °F 42% 30.21 in 10.0 mi WNW 10.4 mph 16.1 mph N/A   Clear
12:35 PM 44.6 °F 38.1 °F 21.2 °F 39% 30.21 in 10.0 mi NW 13.8 mph 23.0 mph N/A   Clear
12:55 PM 44.6 °F 38.8 °F 21.2 °F 39% 30.21 in 10.0 mi NW 11.5 mph 18.4 mph N/A   Clear
1:15 PM 44.6 °F 37.4 °F 19.4 °F 37% 30.21 in 10.0 mi NW 16.1 mph 20.7 mph N/A   Clear
1:35 PM 44.6 °F 37.4 °F 21.2 °F 39% 30.21 in 10.0 mi NW 16.1 mph 21.9 mph N/A   Clear
1:55 PM 44.6 °F 37.8 °F 21.2 °F 39% 30.21 in 10.0 mi NW 15.0 mph 20.7 mph N/A   Clear
2:15 PM 46.4 °F 41.1 °F 21.2 °F 37% 30.20 in 10.0 mi NW 11.5 mph - N/A   Clear
2:35 PM 46.4 °F 41.1 °F 21.2 °F 37% 30.20 in 10.0 mi WNW 11.5 mph - N/A   Clear
2:55 PM 46.4 °F 42.4 °F 19.4 °F 34% 30.20 in 10.0 mi NNW 8.1 mph 18.4 mph N/A   Clear
3:15 PM 46.4 °F 41.1 °F 19.4 °F 34% 30.20 in 10.0 mi NW 11.5 mph - N/A   Clear
3:35 PM 46.4 °F 42.9 °F 19.4 °F 34% 30.19 in 10.0 mi NNW 6.9 mph - N/A   Clear
3:55 PM 46.4 °F 41.1 °F 21.2 °F 37% 30.19 in 10.0 mi NW 11.5 mph - N/A   Clear
4:15 PM 46.4 °F 42.4 °F 17.6 °F 32% 30.19 in 10.0 mi NNW 8.1 mph - N/A   Clear
4:35 PM 46.4 °F 42.4 °F 19.4 °F 34% 30.20 in 10.0 mi WNW 8.1 mph - N/A   Clear
4:55 PM 46.4 °F 45.2 °F 19.4 °F 34% 30.20 in 10.0 mi NW 3.5 mph - N/A   Clear
5:15 PM 46.4 °F 43.5 °F 19.4 °F 34% 30.20 in 10.0 mi NW 5.8 mph - N/A   Scattered Clouds
5:35 PM 46.4 °F 43.5 °F 19.4 °F 34% 30.20 in 10.0 mi NW 5.8 mph - N/A   Scattered Clouds
5:55 PM 44.6 °F 41.4 °F 19.4 °F 37% 30.21 in 10.0 mi WNW 5.8 mph - N/A   Mostly Cloudy
6:15 PM 44.6 °F 40.7 °F 21.2 °F 39% 30.21 in 10.0 mi WNW 6.9 mph - N/A   Overcast
6:35 PM 44.6 °F 41.4 °F 21.2 °F 39% 30.21 in 10.0 mi WNW 5.8 mph - N/A   Overcast
6:55 PM 42.8 °F 41.1 °F 21.2 °F 42% 30.21 in 10.0 mi WNW 3.5 mph - N/A   Mostly Cloudy
7:15 PM 42.8 °F - 17.6 °F 36% 30.21 in 10.0 mi Calm Calm - N/A   Mostly Cloudy
7:35 PM 42.8 °F - 21.2 °F 42% 30.21 in 10.0 mi Calm Calm - N/A   Mostly Cloudy
7:55 PM 41.0 °F - 21.2 °F 45% 30.21 in 10.0 mi Calm Calm - N/A   Scattered Clouds
8:15 PM 41.0 °F - 28.4 °F 61% 30.21 in 10.0 mi Calm Calm - N/A   Scattered Clouds
8:35 PM 41.0 °F - 28.4 °F 61% 30.21 in 10.0 mi Calm Calm - N/A   Clear
8:55 PM 37.4 °F - 28.4 °F 70% 30.21 in 10.0 mi Calm Calm - N/A   Mostly Cloudy
9:15 PM 35.6 °F - 30.2 °F 81% 30.21 in 10.0 mi Calm Calm - N/A   Mostly Cloudy
9:35 PM 35.6 °F - 28.4 °F 75% 30.20 in 10.0 mi Calm Calm - N/A   Scattered Clouds
9:55 PM 35.6 °F - 26.6 °F 70% 30.20 in 10.0 mi Calm Calm - N/A   Clear
10:15 PM 35.6 °F - 28.4 °F 75% 30.20 in 10.0 mi Calm Calm - N/A   Clear
10:35 PM 35.6 °F - 28.4 °F 75% 30.20 in 10.0 mi Calm Calm - N/A   Clear
10:55 PM 33.8 °F - 28.4 °F 81% 30.20 in 10.0 mi Calm Calm - N/A   Clear
11:15 PM 33.8 °F - 28.4 °F 81% 30.20 in 10.0 mi Calm Calm - N/A   Clear
11:35 PM 32.0 °F - 28.4 °F 87% 30.20 in 10.0 mi Calm Calm - N/A   Clear
11:55 PM 32.0 °F - 28.4 °F 87% 30.19 in 10.0 mi Calm Calm - N/A   Clear